Time,TemperatureF,DewpointF,PressureIn,WindDirection,WindDirectionDegrees,WindSpeedMPH,WindSpeedGustMPH,Humidity,HourlyPrecipIn,Conditions,Clouds,dailyrainin,SolarRadiationWatts/m^2,SoftwareType,DateUTC
2013-02-23 00:21:00,17.0,7.0,-100.00,West,264,4.0,6.0,63,0.00,,,0.00,0.000000,,2013-02-23 07:21:00,
2013-02-23 00:31:00,17.0,7.0,-100.00,West,264,4.0,6.0,63,0.00,,,0.00,0.000000,,2013-02-23 07:31:00,
2013-02-23 00:41:00,17.0,7.0,-100.00,West,264,4.0,6.0,63,0.00,,,0.00,0.000000,,2013-02-23 07:41:00,
2013-02-23 00:51:00,17.0,7.0,-100.00,WNW,293,7.0,8.0,65,0.00,,,0.00,0.000000,,2013-02-23 07:51:00,
2013-02-23 01:11:00,17.0,7.0,-100.00,WNW,293,7.0,8.0,65,0.00,,,0.00,0.000000,,2013-02-23 08:11:00,
2013-02-23 01:21:00,17.0,7.0,-100.00,WNW,293,7.0,8.0,65,0.00,,,0.00,0.000000,,2013-02-23 08:21:00,
2013-02-23 01:31:00,17.0,7.0,-100.00,WNW,293,7.0,8.0,65,0.00,,,0.00,0.000000,,2013-02-23 08:31:00,
2013-02-23 01:41:00,17.0,7.0,-100.00,WNW,293,7.0,8.0,65,0.00,,,0.00,0.000000,,2013-02-23 08:41:00,
2013-02-23 01:51:00,15.0,5.0,-100.00,WSW,252,3.0,8.0,64,0.00,,,0.00,0.000000,,2013-02-23 08:51:00,
2013-02-23 02:11:00,15.0,5.0,-100.00,WSW,252,3.0,8.0,64,0.00,,,0.00,0.000000,,2013-02-23 09:11:00,
2013-02-23 02:21:00,15.0,5.0,-100.00,WSW,252,3.0,8.0,64,0.00,,,0.00,0.000000,,2013-02-23 09:21:00,
2013-02-23 02:31:00,15.0,5.0,-100.00,WSW,252,3.0,8.0,64,0.00,,,0.00,0.000000,,2013-02-23 09:31:00,
2013-02-23 02:41:00,15.0,5.0,-100.00,WSW,252,3.0,8.0,64,0.00,,,0.00,0.000000,,2013-02-23 09:41:00,
2013-02-23 03:51:00,14.0,5.0,-100.00,WSW,248,0.0,4.0,67,-99.99,,,-99.99,0.000000,,2013-02-23 10:51:00,
2013-02-23 04:11:00,14.0,5.0,-100.00,WSW,248,0.0,4.0,67,-99.99,,,-99.99,0.000000,,2013-02-23 11:11:00,
2013-02-23 04:21:00,14.0,5.0,-100.00,WSW,248,0.0,4.0,67,-99.99,,,-99.99,0.000000,,2013-02-23 11:21:00,
2013-02-23 04:32:00,14.0,5.0,-100.00,WSW,248,0.0,4.0,67,-99.99,,,-99.99,0.000000,,2013-02-23 11:32:00,
2013-02-23 04:41:00,14.0,5.0,-100.00,WSW,248,0.0,4.0,67,-99.99,,,-99.99,0.000000,,2013-02-23 11:41:00,
2013-02-23 04:51:00,14.0,6.0,-100.00,NNE,17,1.0,4.0,70,0.00,,,0.00,0.000000,,2013-02-23 11:51:00,
2013-02-23 05:21:00,14.0,6.0,-100.00,NNE,17,1.0,4.0,70,0.00,,,0.00,0.000000,,2013-02-23 12:21:00,
2013-02-23 05:32:00,14.0,6.0,-100.00,NNE,17,1.0,4.0,70,0.00,,,0.00,0.000000,,2013-02-23 12:32:00,
2013-02-23 05:42:00,14.0,6.0,-100.00,NNE,17,1.0,4.0,70,0.00,,,0.00,0.000000,,2013-02-23 12:42:00,
2013-02-23 05:51:00,14.0,5.0,-100.00,North,5,3.0,7.0,68,0.00,,,0.00,0.000000,,2013-02-23 12:51:00,
2013-02-23 06:11:00,14.0,5.0,-100.00,North,5,3.0,7.0,68,0.00,,,0.00,0.000000,,2013-02-23 13:11:00,
2013-02-23 06:22:00,14.0,5.0,-100.00,North,5,3.0,7.0,68,0.00,,,0.00,0.000000,,2013-02-23 13:22:00,
2013-02-23 06:31:00,14.0,5.0,-100.00,North,5,3.0,7.0,68,0.00,,,0.00,0.000000,,2013-02-23 13:31:00,
2013-02-23 06:42:00,14.0,5.0,-100.00,North,5,3.0,7.0,68,0.00,,,0.00,0.000000,,2013-02-23 13:42:00,
2013-02-23 07:51:00,15.0,6.0,-100.00,NNW,327,1.0,3.0,68,-99.99,,,0.00,33.000000,,2013-02-23 14:51:00,
2013-02-23 08:21:00,15.0,6.0,-100.00,NNW,327,1.0,3.0,68,-99.99,,,0.00,33.000000,,2013-02-23 15:21:00,
2013-02-23 08:31:00,15.0,6.0,-100.00,NNW,327,1.0,3.0,68,-99.99,,,0.00,33.000000,,2013-02-23 15:31:00,
2013-02-23 08:41:00,15.0,6.0,-100.00,NNW,327,1.0,3.0,68,-99.99,,,0.00,33.000000,,2013-02-23 15:41:00,
2013-02-23 08:51:00,18.0,-99.9,-100.00,ENE,77,2.0,-999.0,-999,0.00,,,0.00,,,2013-02-23 15:51:00,
2013-02-23 09:22:00,18.0,-99.9,-100.00,ENE,77,2.0,-999.0,-999,0.00,,,0.00,,,2013-02-23 16:22:00,
2013-02-23 09:32:00,18.0,-99.9,-100.00,ENE,77,2.0,-999.0,-999,0.00,,,0.00,,,2013-02-23 16:32:00,
2013-02-23 09:42:00,18.0,-99.9,-100.00,ENE,77,2.0,-999.0,-999,0.00,,,0.00,,,2013-02-23 16:42:00,
2013-02-23 09:51:00,23.0,8.0,-100.00,NNE,31,4.0,9.0,52,0.00,,,-99.99,298.000000,,2013-02-23 16:51:00,
2013-02-23 10:11:00,23.0,8.0,-100.00,NNE,31,4.0,9.0,52,0.00,,,-99.99,298.000000,,2013-02-23 17:11:00,
2013-02-23 10:21:00,23.0,8.0,-100.00,NNE,31,4.0,9.0,52,0.00,,,-99.99,298.000000,,2013-02-23 17:21:00,
2013-02-23 10:31:00,23.0,8.0,-100.00,NNE,31,4.0,9.0,52,0.00,,,-99.99,298.000000,,2013-02-23 17:31:00,
2013-02-23 10:41:00,23.0,8.0,-100.00,NNE,31,4.0,9.0,52,0.00,,,-99.99,298.000000,,2013-02-23 17:41:00,
2013-02-23 10:51:00,26.0,9.0,-100.00,South,172,0.0,6.0,49,0.00,,,0.00,312.000000,,2013-02-23 17:51:00,
2013-02-23 11:12:00,26.0,9.0,-100.00,South,172,0.0,6.0,49,0.00,,,0.00,312.000000,,2013-02-23 18:12:00,
2013-02-23 11:21:00,26.0,9.0,-100.00,South,172,0.0,6.0,49,0.00,,,0.00,312.000000,,2013-02-23 18:21:00,
2013-02-23 11:31:00,26.0,9.0,-100.00,South,172,0.0,6.0,49,0.00,,,0.00,312.000000,,2013-02-23 18:31:00,
2013-02-23 11:41:00,26.0,9.0,-100.00,South,172,0.0,6.0,49,0.00,,,0.00,312.000000,,2013-02-23 18:41:00,
2013-02-23 11:51:00,27.0,14.0,-100.00,NE,49,1.0,5.0,58,0.00,,,0.00,322.000000,,2013-02-23 18:51:00,
2013-02-23 12:11:00,27.0,14.0,-100.00,NE,49,1.0,5.0,58,0.00,,,0.00,322.000000,,2013-02-23 19:11:00,
2013-02-23 12:21:00,27.0,14.0,-100.00,NE,49,1.0,5.0,58,0.00,,,0.00,322.000000,,2013-02-23 19:21:00,
2013-02-23 12:32:00,27.0,14.0,-100.00,NE,49,1.0,5.0,58,0.00,,,0.00,322.000000,,2013-02-23 19:32:00,
2013-02-23 12:41:00,27.0,14.0,-100.00,NE,49,1.0,5.0,58,0.00,,,0.00,322.000000,,2013-02-23 19:41:00,
2013-02-23 12:51:00,31.0,21.0,-100.00,West,261,2.0,4.0,65,0.00,,,-99.99,498.000000,,2013-02-23 19:51:00,
2013-02-23 13:11:00,31.0,21.0,-100.00,West,261,2.0,4.0,65,0.00,,,-99.99,498.000000,,2013-02-23 20:11:00,
2013-02-23 13:21:00,31.0,21.0,-100.00,West,261,2.0,4.0,65,0.00,,,-99.99,498.000000,,2013-02-23 20:21:00,
2013-02-23 13:31:00,31.0,21.0,-100.00,West,261,2.0,4.0,65,0.00,,,-99.99,498.000000,,2013-02-23 20:31:00,
2013-02-23 13:41:00,31.0,21.0,-100.00,West,261,2.0,4.0,65,0.00,,,-99.99,498.000000,,2013-02-23 20:41:00,
2013-02-23 13:51:00,32.0,19.0,-100.00,SW,233,2.0,6.0,59,0.00,,,0.00,611.000000,,2013-02-23 20:51:00,
2013-02-23 14:11:00,32.0,19.0,-100.00,SW,233,2.0,6.0,59,0.00,,,0.00,611.000000,,2013-02-23 21:11:00,
2013-02-23 14:22:00,32.0,19.0,-100.00,SW,233,2.0,6.0,59,0.00,,,0.00,611.000000,,2013-02-23 21:22:00,
2013-02-23 14:31:00,32.0,19.0,-100.00,SW,233,2.0,6.0,59,0.00,,,0.00,611.000000,,2013-02-23 21:31:00,
2013-02-23 14:41:00,32.0,19.0,-100.00,SW,233,2.0,6.0,59,0.00,,,0.00,611.000000,,2013-02-23 21:41:00,
2013-02-23 14:51:00,32.0,17.0,-100.00,NNW,333,4.0,9.0,53,0.00,,,0.00,658.000000,,2013-02-23 21:51:00,
2013-02-23 15:11:00,32.0,17.0,-100.00,NNW,333,4.0,9.0,53,0.00,,,0.00,658.000000,,2013-02-23 22:11:00,
2013-02-23 15:21:00,32.0,17.0,-100.00,NNW,333,4.0,9.0,53,0.00,,,0.00,658.000000,,2013-02-23 22:21:00,
2013-02-23 15:31:00,32.0,17.0,-100.00,NNW,333,4.0,9.0,53,0.00,,,0.00,658.000000,,2013-02-23 22:31:00,
2013-02-23 15:41:00,32.0,17.0,-100.00,NNW,333,4.0,9.0,53,0.00,,,0.00,658.000000,,2013-02-23 22:41:00,
2013-02-23 15:51:00,30.0,17.0,-100.00,WNW,288,8.0,14.0,59,0.00,,,0.00,139.000000,,2013-02-23 22:51:00,
2013-02-23 16:21:00,30.0,17.0,-100.00,WNW,288,8.0,14.0,59,0.00,,,0.00,139.000000,,2013-02-23 23:21:00,
2013-02-23 16:31:00,30.0,17.0,-100.00,WNW,288,8.0,14.0,59,0.00,,,0.00,139.000000,,2013-02-23 23:31:00,
2013-02-23 16:41:00,30.0,17.0,-100.00,WNW,288,8.0,14.0,59,0.00,,,0.00,139.000000,,2013-02-23 23:41:00,
2013-02-23 16:51:00,28.0,22.0,-100.00,SSW,204,7.0,13.0,77,0.00,,,0.00,69.000000,,2013-02-23 23:51:00,
2013-02-23 17:11:00,28.0,22.0,-100.00,SSW,204,7.0,13.0,77,0.00,,,0.00,69.000000,,2013-02-24 00:11:00,
2013-02-23 17:22:00,28.0,22.0,-100.00,SSW,204,7.0,13.0,77,0.00,,,0.00,69.000000,,2013-02-24 00:22:00,
2013-02-23 17:32:00,28.0,22.0,-100.00,SSW,204,7.0,13.0,77,0.00,,,0.00,69.000000,,2013-02-24 00:32:00,
2013-02-23 17:42:00,28.0,22.0,-100.00,SSW,204,7.0,13.0,77,0.00,,,0.00,69.000000,,2013-02-24 00:42:00,
2013-02-23 17:51:00,26.0,23.0,-100.00,South,180,4.0,13.0,88,0.00,,,0.00,31.000000,,2013-02-24 00:51:00,
2013-02-23 18:11:00,26.0,23.0,-100.00,South,180,4.0,13.0,88,0.00,,,0.00,31.000000,,2013-02-24 01:11:00,
2013-02-23 18:22:00,26.0,23.0,-100.00,South,180,4.0,13.0,88,0.00,,,0.00,31.000000,,2013-02-24 01:22:00,
2013-02-23 18:31:00,26.0,23.0,-100.00,South,180,4.0,13.0,88,0.00,,,0.00,31.000000,,2013-02-24 01:31:00,
2013-02-23 18:41:00,26.0,23.0,-100.00,South,180,4.0,13.0,88,0.00,,,0.00,31.000000,,2013-02-24 01:41:00,
2013-02-23 18:51:00,25.0,23.0,-100.00,SSE,166,6.0,8.0,93,0.00,,,0.00,1.000000,,2013-02-24 01:51:00,
2013-02-23 19:11:00,25.0,23.0,-100.00,SSE,166,6.0,8.0,93,0.00,,,0.00,1.000000,,2013-02-24 02:11:00,
2013-02-23 19:21:00,25.0,23.0,-100.00,SSE,166,6.0,8.0,93,0.00,,,0.00,1.000000,,2013-02-24 02:21:00,
2013-02-23 19:31:00,25.0,23.0,-100.00,SSE,166,6.0,8.0,93,0.00,,,0.00,1.000000,,2013-02-24 02:31:00,
2013-02-23 19:41:00,25.0,23.0,-100.00,SSE,166,6.0,8.0,93,0.00,,,0.00,1.000000,,2013-02-24 02:41:00,
2013-02-23 19:51:00,25.0,23.0,-100.00,SSE,164,4.0,-999.0,93,0.00,,,0.00,,,2013-02-24 02:51:00,
2013-02-23 20:21:00,25.0,23.0,-100.00,SSE,164,4.0,-999.0,93,0.00,,,0.00,,,2013-02-24 03:21:00,
2013-02-23 20:31:00,25.0,23.0,-100.00,SSE,164,4.0,-999.0,93,0.00,,,0.00,,,2013-02-24 03:31:00,
2013-02-23 20:42:00,25.0,23.0,-100.00,SSE,164,4.0,-999.0,93,0.00,,,0.00,,,2013-02-24 03:42:00,
2013-02-23 20:51:00,25.0,24.0,-100.00,South,180,5.0,7.0,94,0.00,,,0.00,0.000000,,2013-02-24 03:51:00,
2013-02-23 21:11:00,25.0,24.0,-100.00,South,180,5.0,7.0,94,0.00,,,0.00,0.000000,,2013-02-24 04:11:00,
2013-02-23 21:21:00,25.0,24.0,-100.00,South,180,5.0,7.0,94,0.00,,,0.00,0.000000,,2013-02-24 04:21:00,
2013-02-23 21:31:00,25.0,24.0,-100.00,South,180,5.0,7.0,94,0.00,,,0.00,0.000000,,2013-02-24 04:31:00,
2013-02-23 21:41:00,25.0,24.0,-100.00,South,180,5.0,7.0,94,0.00,,,0.00,0.000000,,2013-02-24 04:41:00,
2013-02-23 21:51:00,25.0,24.0,-100.00,NW,304,1.0,7.0,94,0.00,,,0.00,0.000000,,2013-02-24 04:51:00,
2013-02-23 22:22:00,25.0,24.0,-100.00,NW,304,1.0,7.0,94,0.00,,,0.00,0.000000,,2013-02-24 05:22:00,
2013-02-23 22:32:00,25.0,24.0,-100.00,NW,304,1.0,7.0,94,0.00,,,0.00,0.000000,,2013-02-24 05:32:00,
2013-02-23 22:42:00,25.0,24.0,-100.00,NW,304,1.0,7.0,94,0.00,,,0.00,0.000000,,2013-02-24 05:42:00,
2013-02-23 22:51:00,23.0,18.0,-100.00,West,273,9.0,16.0,80,0.00,,,0.00,0.000000,,2013-02-24 05:51:00,
2013-02-23 23:21:00,23.0,18.0,-100.00,West,273,9.0,16.0,80,0.00,,,0.00,0.000000,,2013-02-24 06:21:00,
2013-02-23 23:31:00,23.0,18.0,-100.00,West,273,9.0,16.0,80,0.00,,,0.00,0.000000,,2013-02-24 06:31:00,
2013-02-23 23:41:00,23.0,18.0,-100.00,West,273,9.0,16.0,80,0.00,,,0.00,0.000000,,2013-02-24 06:41:00,
2013-02-23 23:51:00,21.0,17.0,-100.00,WSW,256,16.0,21.0,86,0.00,,,0.00,0.000000,,2013-02-24 06:51:00,